User: anonymous   Login
Location: Unspecified
(0.0000°N, 0.0000°E)
Time: 20:58:09
(UTC+01:00)
Language:

CZ-4 R/B - Orbit

View from above orbital plane
View from above orbital plane
View from above satellite
View from above satellite

Ground track
Ground track

The orbit data is extracted from the following two-line orbital elements,

1 28059U 03049C   17020.27658411 -.00000008  00000-0  10069-4 0  9993
2 28059  98.5819 263.0801 0049813 339.6888 128.1593 14.52474018702202
Epoch (UTC): 20 January 2017 06:38:16
Eccentricity: 0.0049813
inclination: 98.5819°
perigee height: 682 km
apogee height: 753 km
right ascension of ascending node: 263.0801°
argument of perigee: 339.6888°
revolutions per day: 14.52474018
mean anomaly at epoch: 128.1593°
orbit number at epoch: 70220

The dashed part of the orbit path shows where the satellite is in the earth's shadow,  

DLR